QPF
0.05 0.06 0.06 0.05 0.05 0.05 0.06 0.09 0.10 0.08 0.07 0.08 0.07 0.05 0.05 0.06 0.04 0.05 0.05 0.04 0.04 0.04 0.05 0.06 0.06 0.05 0.07 0.11 0.13 0.12 0.10 0.08 0.08 0.09 0.09 0.08 0.08 0.08
0.02 0.03 0.03 0.04 0.04 0.03 0.03 0.05 0.07 0.08 0.09 0.09 0.07 0.05 0.05 0.06 0.06 0.06 0.07 0.06 0.05 0.05 0.05 0.06 0.06 0.05 0.05 0.06 0.09 0.11 0.11 0.11 0.10 0.10 0.11 0.11 0.09 0.08
0.02 0.02 0.02 0.03 0.03 0.03 0.02 0.03 0.04 0.07 0.11 0.11 0.07 0.06 0.05 0.04 0.06 0.07 0.08 0.06 0.06 0.07 0.07 0.06 0.06 0.06 0.06 0.07 0.08 0.10 0.12 0.14 0.14 0.13 0.13 0.12 0.11 0.10
0.02 0.02 0.02 0.02 0.02 0.02 0.02 0.02 0.02 0.03 0.07 0.08 0.05 0.04 0.03 0.03 0.03 0.05 0.06 0.05 0.05 0.07 0.09 0.08 0.08 0.08 0.08 0.07 0.09 0.08 0.10 0.12 0.13 0.14 0.14 0.14 0.12 0.11
0.02 0.02 0.02 0.01 0.01 0.01 0.02 0.02 0.04 0.04 0.03 0.04 0.03 0.02 0.01 0.01 0.02 0.03 0.05 0.06 0.05 0.06 0.09 0.10 0.08 0.08 0.08 0.07 0.07 0.08 0.09 0.09 0.10 0.11 0.12 0.14 0.14 0.14
0.03 0.03 0.03 0.02 0.01 0.01 0.02 0.03 0.04 0.04 0.03 0.02 0.02 0.01 0.01 0.01 0.01 0.02 0.03 0.04 0.05 0.06 0.07 0.09 0.09 0.08 0.09 0.10 0.09 0.08 0.07 0.07 0.08 0.09 0.10 0.11 0.12 0.12
0.02 0.03 0.02 0.02 0.02 0.03 0.03 0.04 0.04 0.03 0.02 0.01 0.01 0.01 0.01 0.01 0.01 0.02 0.02 0.03 0.04 0.06 0.06 0.06 0.07 0.07 0.09 0.11 0.13 0.10 0.08 0.07 0.06 0.06 0.07 0.07 0.08 0.09
0.02 0.02 0.02 0.02 0.02 0.03 0.03 0.03 0.03 0.04 0.03 0.03 0.02 0.01 0.01 0.00 0.00 0.00 0.01 0.01 0.02 0.03 0.04 0.05 0.05 0.05 0.06 0.08 0.10 0.09 0.09 0.09 0.07 0.06 0.06 0.06 0.06 0.07
0.01 0.01 0.01 0.01 0.01 0.02 0.02 0.01 0.02 0.04 0.04 0.03 0.02 0.01 0.01 0.00 0.00 0.00 0.00 0.00 0.01 0.02 0.02 0.03 0.04 0.04 0.04 0.05 0.07 0.07 0.06 0.07 0.07 0.06 0.05 0.05 0.04 0.05
0.01 0.01 0.01 0.01 0.02 0.02 0.01 0.01 0.02 0.02 0.02 0.01 0.01 0.01 0.01 0.01 0.01 0.01 0.01 0.00 0.01 0.02 0.03 0.02 0.01 0.02 0.02 0.02 0.03 0.04 0.04 0.04 0.04 0.05 0.05 0.04 0.03 0.03
0.01 0.01 0.02 0.02 0.02 0.02 0.02 0.01 0.01 0.01 0.01 0.01 0.01 0.00 0.01 0.01 0.01 0.01 0.01 0.01 0.01 0.02 0.02 0.02 0.01 0.01 0.01 0.01 0.01 0.02 0.02 0.02 0.02 0.03 0.04 0.04 0.03 0.03
0.01 0.01 0.01 0.02 0.02 0.01 0.01 0.01 0.01 0.01 0.01 0.00 0.00 0.00 0.00 0.00 0.00 0.00 0.01 0.01 0.01 0.01 0.01 0.01 0.01 0.01 0.01 0.01 0.01 0.01 0.01 0.01 0.01 0.02 0.02 0.02 0.03 0.02
0.01 0.01 0.02 0.02 0.02 0.01 0.01 0.00 0.00 0.01 0.01 0.00 0.01 0.01 0.02 0.01 0.01 0.02 0.02 0.01 0.02 0.01 0.01 0.01 0.01 0.01 0.01 0.01 0.01 0.00 0.00 0.01 0.01 0.01 0.01 0.01 0.02 0.02
0.01 0.01 0.02 0.02 0.01 0.01 0.00 0.00 0.01 0.01 0.01 0.01 0.02 0.02 0.01 0.01 0.01 0.01 0.01 0.01 0.01 0.01 0.01 0.01 0.02 0.02 0.02 0.02 0.02 0.01 0.01 0.00 0.01 0.01 0.01 0.02 0.02 0.02
0.00 0.01 0.01 0.01 0.00 0.00 0.00 0.00 0.01 0.01 0.01 0.01 0.01 0.01 0.01 0.01 0.01 0.01 0.01 0.01 0.01 0.01 0.00 0.00 0.02 0.02 0.03 0.03 0.02 0.02 0.02 0.01 0.01 0.01 0.01 0.01 0.02 0.02
0.00 0.00 0.00 0.00 0.00 0.00 0.00 0.00 0.00 0.00 0.00 0.00 0.00 0.00 0.00 0.00 0.00 0.01 0.01 0.01 0.01 0.01 0.01 0.01 0.02 0.03 0.04 0.03 0.03 0.03 0.03 0.03 0.03 0.02 0.02 0.02 0.02 0.01
0.00 0.00 0.00 0.00 0.00 0.00 0.00 0.00 0.00 0.00 0.00 0.00 0.00 0.00 0.00 0.00 0.00 0.00 0.01 0.01 0.01 0.01 0.01 0.02 0.03 0.04 0.04 0.04 0.04 0.04 0.04 0.03 0.03 0.03 0.03 0.02 0.02 0.02
0.00 0.00 0.00 0.00 0.00 0.00 0.00 0.00 0.00 0.00 0.00 0.01 0.01 0.01 0.00 0.00 0.00 0.00 0.01 0.01 0.01 0.02 0.02 0.02 0.02 0.03 0.04 0.04 0.04 0.04 0.04 0.03 0.03 0.03 0.03 0.02 0.02 0.02
0.00 0.00 0.00 0.00 0.00 0.00 0.00 0.01 0.01 0.00 0.01 0.01 0.01 0.01 0.00 0.00 0.00 0.01 0.01 0.01 0.01 0.02 0.03 0.03 0.03 0.04 0.04 0.03 0.04 0.05 0.05 0.05 0.04 0.04 0.04 0.03 0.02 0.02
0.01 0.00 0.00 0.00 0.00 0.00 0.00 0.00 0.01 0.01 0.01 0.01 0.01 0.00 0.00 0.00 0.00 0.01 0.01 0.01 0.02 0.02 0.03 0.03 0.03 0.03 0.04 0.04 0.04 0.04 0.04 0.05 0.06 0.05 0.05 0.05 0.04 0.03
0.00 0.00 0.00 0.00 0.00 0.00 0.00 0.00 0.01 0.01 0.01 0.01 0.00 0.00 0.00 0.01 0.01 0.01 0.01 0.02 0.02 0.04 0.04 0.03 0.03 0.04 0.05 0.06 0.06 0.04 0.03 0.03 0.03 0.04 0.04 0.05 0.05 0.04
0.01 0.00 0.00 0.01 0.01 0.01 0.00 0.00 0.00 0.00 0.01 0.01 0.01 0.01 0.01 0.01 0.01 0.01 0.01 0.02 0.02 0.03 0.04 0.04 0.04 0.05 0.06 0.07 0.06 0.04 0.03 0.03 0.03 0.03 0.03 0.03 0.03 0.03
0.01 0.01 0.01 0.01 0.01 0.01 0.00 0.00 0.00 0.00 0.01 0.01 0.01 0.01 0.02 0.02 0.02 0.02 0.02 0.02 0.02 0.02 0.03 0.03 0.03 0.04 0.06 0.07 0.07 0.05 0.04 0.03 0.03 0.03 0.04 0.04 0.04 0.04
MSLP
1010.52 1011.14 1011.79 1012.45 1013.06 1013.60 1014.06 1014.44 1014.74 1014.99 1015.20 1015.39 1015.56 1015.72 1015.87 1016.00 1016.13 1016.26 1016.41 1016.58 1016.79 1017.04 1017.32 1017.62 1017.93 1018.22 1018.47 1018.68 1018.84 1018.96 1019.06 1019.17 1019.31 1019.48 1019.68 1019.90 1020.13 1020.34
1009.75 1010.36 1011.00 1011.64 1012.26 1012.82 1013.31 1013.74 1014.12 1014.44 1014.72 1014.97 1015.18 1015.36 1015.51 1015.63 1015.72 1015.81 1015.91 1016.04 1016.22 1016.45 1016.73 1017.04 1017.37 1017.68 1017.96 1018.20 1018.38 1018.52 1018.65 1018.77 1018.92 1019.08 1019.28 1019.50 1019.72 1019.92
1009.06 1009.67 1010.31 1010.95 1011.58 1012.16 1012.70 1013.18 1013.61 1014.01 1014.35 1014.66 1014.91 1015.11 1015.25 1015.35 1015.41 1015.46 1015.52 1015.61 1015.76 1015.96 1016.23 1016.54 1016.88 1017.20 1017.50 1017.75 1017.95 1018.11 1018.25 1018.37 1018.51 1018.67 1018.86 1019.06 1019.26 1019.44
1008.46 1009.07 1009.72 1010.37 1011.01 1011.62 1012.20 1012.73 1013.22 1013.66 1014.06 1014.41 1014.70 1014.92 1015.07 1015.16 1015.20 1015.22 1015.25 1015.32 1015.43 1015.62 1015.86 1016.16 1016.48 1016.80 1017.09 1017.34 1017.54 1017.69 1017.82 1017.93 1018.05 1018.19 1018.36 1018.53 1018.71 1018.88
1007.96 1008.58 1009.23 1009.89 1010.54 1011.17 1011.77 1012.34 1012.87 1013.35 1013.79 1014.18 1014.49 1014.73 1014.90 1015.00 1015.05 1015.07 1015.09 1015.14 1015.24 1015.40 1015.62 1015.88 1016.17 1016.45 1016.70 1016.92 1017.08 1017.21 1017.31 1017.40 1017.49 1017.61 1017.75 1017.90 1018.07 1018.23
1007.58 1008.18 1008.82 1009.47 1010.13 1010.76 1011.38 1011.96 1012.51 1013.03 1013.49 1013.90 1014.24 1014.51 1014.70 1014.83 1014.91 1014.95 1014.99 1015.04 1015.14 1015.28 1015.46 1015.67 1015.90 1016.12 1016.31 1016.46 1016.56 1016.64 1016.69 1016.74 1016.80 1016.89 1017.02 1017.16 1017.33 1017.49
1007.30 1007.86 1008.47 1009.10 1009.74 1010.37 1010.98 1011.56 1012.12 1012.64 1013.11 1013.53 1013.90 1014.20 1014.43 1014.60 1014.72 1014.81 1014.88 1014.96 1015.06 1015.18 1015.33 1015.48 1015.63 1015.76 1015.86 1015.92 1015.95 1015.95 1015.95 1015.96 1015.99 1016.07 1016.18 1016.34 1016.52 1016.71
1007.11 1007.62 1008.18 1008.77 1009.38 1009.99 1010.57 1011.14 1011.68 1012.18 1012.65 1013.08 1013.45 1013.78 1014.05 1014.28 1014.45 1014.60 1014.73 1014.84 1014.95 1015.06 1015.16 1015.25 1015.32 1015.35 1015.35 1015.31 1015.25 1015.18 1015.12 1015.09 1015.11 1015.18 1015.30 1015.48 1015.68 1015.91
1007.01 1007.44 1007.95 1008.49 1009.06 1009.63 1010.18 1010.71 1011.22 1011.69 1012.14 1012.55 1012.93 1013.27 1013.58 1013.85 1014.09 1014.30 1014.48 1014.63 1014.76 1014.86 1014.92 1014.95 1014.94 1014.88 1014.79 1014.66 1014.52 1014.38 1014.28 1014.22 1014.22 1014.30 1014.44 1014.64 1014.88 1015.14
1006.97 1007.35 1007.80 1008.29 1008.81 1009.34 1009.85 1010.33 1010.79 1011.22 1011.63 1012.01 1012.37 1012.72 1013.04 1013.35 1013.63 1013.89 1014.11 1014.30 1014.45 1014.54 1014.59 1014.57 1014.50 1014.37 1014.20 1014.00 1013.80 1013.63 1013.49 1013.42 1013.42 1013.50 1013.66 1013.89 1014.16 1014.44
1007.00 1007.32 1007.73 1008.18 1008.66 1009.14 1009.60 1010.04 1010.45 1010.82 1011.17 1011.51 1011.84 1012.16 1012.48 1012.80 1013.10 1013.39 1013.64 1013.86 1014.02 1014.12 1014.14 1014.10 1014.00 1013.83 1013.62 1013.39 1013.16 1012.96 1012.82 1012.74 1012.75 1012.84 1013.00 1013.23 1013.51 1013.80
1007.05 1007.35 1007.73 1008.16 1008.61 1009.05 1009.47 1009.85 1010.19 1010.51 1010.80 1011.07 1011.35 1011.63 1011.93 1012.23 1012.53 1012.82 1013.08 1013.31 1013.48 1013.58 1013.61 1013.57 1013.45 1013.28 1013.07 1012.84 1012.61 1012.42 1012.28 1012.20 1012.21 1012.29 1012.44 1012.65 1012.90 1013.16
1007.09 1007.40 1007.78 1008.19 1008.61 1009.02 1009.39 1009.72 1010.00 1010.25 1010.48 1010.69 1010.90 1011.13 1011.38 1011.65 1011.93 1012.20 1012.45 1012.67 1012.84 1012.95 1012.99 1012.96 1012.87 1012.72 1012.53 1012.33 1012.13 1011.95 1011.82 1011.75 1011.74 1011.79 1011.91 1012.07 1012.26 1012.47
1007.10 1007.42 1007.80 1008.20 1008.61 1008.98 1009.31 1009.59 1009.81 1010.00 1010.16 1010.31 1010.46 1010.64 1010.84 1011.06 1011.29 1011.53 1011.76 1011.96 1012.12 1012.23 1012.28 1012.28 1012.21 1012.11 1011.96 1011.80 1011.64 1011.48 1011.36 1011.28 1011.24 1011.25 1011.30 1011.39 1011.51 1011.64
1007.00 1007.35 1007.73 1008.12 1008.50 1008.83 1009.12 1009.35 1009.52 1009.66 1009.77 1009.87 1009.97 1010.10 1010.25 1010.43 1010.62 1010.81 1011.01 1011.18 1011.32 1011.42 1011.48 1011.49 1011.46 1011.39 1011.29 1011.17 1011.04 1010.91 1010.79 1010.69 1010.61 1010.56 1010.53 1010.54 1010.57 1010.63
1006.77 1007.12 1007.50 1007.86 1008.20 1008.49 1008.72 1008.91 1009.04 1009.14 1009.22 1009.29 1009.37 1009.47 1009.59 1009.73 1009.88 1010.03 1010.18 1010.32 1010.43 1010.51 1010.56 1010.58 1010.57 1010.53 1010.46 1010.37 1010.27 1010.14 1010.02 1009.88 1009.76 1009.64 1009.54 1009.47 1009.43 1009.41
1006.38 1006.71 1007.04 1007.36 1007.64 1007.88 1008.07 1008.21 1008.31 1008.39 1008.46 1008.53 1008.61 1008.71 1008.82 1008.94 1009.06 1009.18 1009.28 1009.38 1009.45 1009.49 1009.52 1009.53 1009.51 1009.48 1009.43 1009.35 1009.25 1009.13 1008.99 1008.83 1008.66 1008.49 1008.34 1008.20 1008.11 1008.05
1005.81 1006.10 1006.37 1006.61 1006.82 1007.00 1007.13 1007.24 1007.32 1007.40 1007.49 1007.58 1007.68 1007.80 1007.92 1008.03 1008.14 1008.23 1008.30 1008.34 1008.36 1008.37 1008.35 1008.33 1008.29 1008.24 1008.19 1008.11 1008.01 1007.88 1007.73 1007.56 1007.37 1007.17 1006.99 1006.83 1006.72 1006.67
1005.11 1005.32 1005.50 1005.66 1005.79 1005.90 1005.98 1006.06 1006.14 1006.23 1006.34 1006.46 1006.60 1006.75 1006.90 1007.03 1007.13 1007.20 1007.23 1007.23 1007.19 1007.14 1007.08 1007.01 1006.94 1006.87 1006.80 1006.72 1006.61 1006.49 1006.35 1006.18 1006.00 1005.81 1005.65 1005.51 1005.43 1005.41
1004.33 1004.44 1004.53 1004.60 1004.64 1004.68 1004.71 1004.76 1004.84 1004.94 1005.08 1005.24 1005.43 1005.61 1005.78 1005.92 1006.03 1006.08 1006.08 1006.03 1005.95 1005.85 1005.74 1005.63 1005.53 1005.44 1005.36 1005.28 1005.19 1005.09 1004.97 1004.85 1004.71 1004.58 1004.47 1004.40 1004.38 1004.43
1003.54 1003.55 1003.54 1003.51 1003.47 1003.44 1003.43 1003.46 1003.52 1003.64 1003.79 1003.99 1004.20 1004.41 1004.60 1004.75 1004.85 1004.89 1004.86 1004.79 1004.67 1004.53 1004.39 1004.26 1004.14 1004.05 1003.98 1003.92 1003.87 1003.82 1003.77 1003.72 1003.66 1003.62 1003.61 1003.63 1003.71 1003.85
1002.80 1002.71 1002.61 1002.50 1002.39 1002.30 1002.24 1002.24 1002.29 1002.40 1002.56 1002.76 1002.98 1003.20 1003.40 1003.54 1003.63 1003.66 1003.62 1003.52 1003.40 1003.25 1003.10 1002.97 1002.87 1002.80 1002.77 1002.77 1002.79 1002.82 1002.86 1002.91 1002.97 1003.05 1003.15 1003.28 1003.46 1003.69
1002.16 1001.99 1001.81 1001.63 1001.46 1001.31 1001.21 1001.17 1001.20 1001.28 1001.42 1001.61 1001.81 1002.02 1002.20 1002.33 1002.41 1002.43 1002.39 1002.30 1002.18 1002.05 1001.94 1001.85 1001.80 1001.80 1001.84 1001.92 1002.03 1002.17 1002.33 1002.51 1002.69 1002.89 1003.11 1003.36 1003.63 1003.94
Thickness
5655 5654 5653 5652 5651 5651 5650 5648 5646 5644 5645 5647 5648 5650 5649 5649 5649 5649 5650 5650 5651 5652 5652 5653 5653 5655 5656 5658 5659 5661 5662 5662 5663 5663 5663 5664 5665 5665
5651 5649 5649 5648 5648 5647 5646 5644 5643 5641 5640 5642 5642 5643 5643 5642 5642 5642 5643 5643 5643 5644 5645 5645 5646 5647 5649 5650 5652 5654 5655 5656 5657 5657 5657 5658 5659 5659
5646 5645 5645 5644 5644 5643 5642 5640 5638 5637 5636 5636 5635 5636 5635 5636 5636 5635 5635 5635 5635 5636 5637 5638 5639 5640 5641 5642 5644 5646 5647 5648 5649 5650 5651 5652 5653 5654
5641 5641 5641 5641 5640 5639 5637 5636 5635 5633 5631 5630 5630 5628 5628 5628 5628 5628 5628 5628 5627 5628 5630 5631 5632 5633 5633 5634 5636 5638 5639 5640 5641 5642 5644 5646 5647 5647
5638 5637 5637 5637 5636 5634 5633 5632 5630 5629 5626 5624 5623 5622 5621 5621 5621 5620 5620 5619 5620 5620 5621 5623 5624 5625 5626 5627 5628 5630 5631 5632 5633 5635 5636 5637 5639 5641
5633 5633 5633 5632 5632 5631 5629 5627 5625 5623 5620 5617 5616 5615 5615 5614 5613 5612 5612 5611 5611 5612 5613 5614 5615 5616 5617 5618 5620 5621 5622 5623 5624 5626 5628 5629 5631 5632
5628 5628 5628 5628 5627 5626 5624 5622 5620 5617 5614 5612 5610 5609 5608 5606 5605 5604 5604 5603 5603 5602 5604 5605 5606 5608 5609 5610 5611 5612 5613 5614 5616 5618 5620 5621 5622 5624
5623 5623 5623 5622 5621 5620 5619 5617 5615 5612 5609 5606 5604 5602 5600 5599 5598 5596 5595 5595 5595 5594 5594 5597 5597 5599 5600 5601 5602 5603 5604 5605 5607 5609 5611 5612 5613 5615
5618 5617 5617 5617 5615 5613 5612 5611 5608 5606 5603 5600 5598 5596 5594 5593 5591 5589 5587 5586 5586 5586 5585 5588 5589 5590 5591 5593 5594 5595 5596 5597 5598 5600 5601 5603 5604 5606
5613 5612 5611 5609 5608 5606 5605 5603 5601 5599 5597 5595 5592 5590 5588 5586 5584 5582 5580 5579 5579 5579 5577 5579 5581 5582 5584 5584 5586 5587 5588 5589 5590 5592 5593 5594 5596 5597
5608 5606 5605 5603 5601 5600 5598 5596 5594 5591 5589 5588 5586 5584 5582 5580 5577 5575 5573 5572 5573 5573 5570 5570 5572 5573 5576 5578 5579 5580 5581 5582 5583 5584 5586 5587 5588 5589
5602 5600 5598 5597 5595 5593 5591 5589 5586 5584 5582 5581 5579 5578 5576 5574 5572 5569 5567 5566 5565 5565 5564 5562 5564 5564 5567 5570 5570 5571 5572 5573 5575 5576 5578 5579 5580 5580
5596 5594 5593 5590 5588 5586 5583 5581 5579 5577 5575 5573 5572 5571 5570 5568 5566 5564 5561 5559 5558 5558 5558 5555 5556 5555 5556 5560 5562 5563 5564 5565 5567 5568 5570 5572 5572 5573
5592 5590 5587 5585 5582 5580 5577 5575 5573 5570 5569 5567 5566 5564 5563 5562 5560 5559 5556 5554 5553 5552 5551 5549 5549 5549 5549 5551 5554 5555 5556 5557 5558 5560 5562 5564 5565 5566
5588 5586 5583 5580 5577 5575 5572 5570 5567 5565 5563 5561 5560 5558 5556 5555 5554 5553 5552 5550 5548 5547 5546 5544 5543 5542 5542 5543 5546 5547 5548 5550 5551 5553 5554 5556 5559 5560
5584 5581 5578 5575 5573 5570 5567 5565 5562 5560 5557 5555 5554 5552 5550 5549 5548 5547 5546 5545 5544 5545 5542 5540 5538 5537 5537 5538 5539 5540 5541 5543 5544 5545 5547 5550 5552 5554
5581 5577 5575 5572 5569 5566 5563 5560 5558 5555 5553 5550 5548 5547 5545 5544 5543 5541 5539 5538 5538 5538 5538 5537 5534 5532 5532 5532 5534 5535 5536 5537 5538 5539 5540 5543 5546 5548
5578 5575 5571 5568 5565 5563 5560 5557 5555 5552 5549 5547 5544 5542 5540 5539 5537 5536 5534 5533 5533 5533 5532 5531 5529 5528 5528 5529 5528 5529 5530 5531 5532 5532 5534 5537 5542 5544
5575 5572 5569 5566 5563 5560 5557 5554 5552 5549 5546 5543 5541 5538 5536 5534 5532 5531 5529 5528 5528 5528 5527 5525 5523 5522 5523 5525 5527 5523 5524 5526 5526 5528 5530 5532 5536 5539
5572 5570 5567 5563 5560 5557 5554 5552 5549 5547 5544 5541 5538 5535 5532 5530 5528 5527 5525 5524 5523 5523 5522 5521 5519 5518 5517 5519 5521 5521 5519 5520 5521 5523 5526 5527 5529 5531
5569 5567 5564 5561 5558 5555 5552 5549 5546 5544 5541 5538 5535 5532 5530 5527 5525 5523 5522 5519 5518 5518 5518 5518 5517 5514 5513 5512 5514 5517 5516 5515 5516 5517 5519 5521 5525 5528
5566 5564 5561 5558 5555 5552 5549 5546 5543 5541 5538 5535 5533 5529 5526 5523 5522 5520 5518 5517 5516 5515 5514 5514 5512 5510 5509 5510 5511 5511 5512 5511 5511 5511 5512 5515 5518 5522
5563 5560 5558 5555 5552 5549 5546 5543 5540 5538 5535 5532 5529 5526 5523 5520 5518 5517 5516 5514 5513 5512 5511 5510 5509 5507 5506 5506 5505 5505 5506 5506 5506 5507 5509 5509 5511 5513